Voltar ao catálogo

KUIPER-00603

AtivoComunicaçõesLEO
NORAD 69287·PAYLOAD·🇺🇸 United States

Lançado May 29, 2026 de Vandenberg Space Force Base

Loading…

Próximas Passagens (próximas 24 horas)

TLE

AtualizadoSource: CelesTrak SupGP

Época: Sep 15, 2026, 04:10 UTC

1 69287C 26118W   26258.17407407 -.00013009  00000+0 -17029-2 0  2586
2 69287  51.9046 357.7497 0000490  94.3939 153.6454 14.79943901    17

Acompanhe KUIPER-00603 em tempo real com AllMySat

Download on the App Store